Regional Weather Roundup
Issued by NWS

Home | Current Version | Previous Version | Graphics & Text | Print | Product List | Glossary Off
Versions: 1 2 3 4 5 6 7 8 9 10 11 12 13 14 15 16 17 18 19 20 21 22 23 24 25 26 27 28 29 30 31 32 33 34 35 36 37 38 39 40 41 42 43 44 45 46 47 48 49 50

000
ASUS43 KTOP 190359
RWRKS

WEATHER ROUNDUP FOR KANSAS
NATIONAL WEATHER SERVICE GOODLAND KS
1100 PM CDT SAT APR 18 2015

NOTE:  "FAIR" INDICATES FEW OR NO CLOUDS BELOW 12,000 FEET WITH NO
SIGNIFICANT WEATHER AND/OR OBSTRUCTIONS TO VISIBILITY.

KSZ001>006-013>018-027>032-041>047-190500-
NORTHWEST KANSAS

CITY           SKY/WX    TMP DP  RH WIND       PRES   REMARKS
GOODLAND       CLOUDY    48  43  82 N15       29.80F
HAYS           CLOUDY    52  43  71 E12       29.77F
HILL CITY      MOCLDY    51  46  83 SE5       29.79F
RUSSELL        CLOUDY    51  48  89 NE8       29.79R
$$

KSZ061>065-074>080-084>089-190500-
SOUTHWEST KANSAS

CITY           SKY/WX    TMP DP  RH WIND       PRES   REMARKS
DODGE CITY     CLOUDY    52  40  63 N6        29.80R
ELKHART          N/A    N/A N/A N/A MISG        N/A
GARDEN CITY    CLEAR     45  38  76 SW6       29.79R
GREAT BEND     CLOUDY    57  43  58 N7        29.73F
LIBERAL        PTCLDY    45  34  65 W6        29.82S
$$

KSZ066>073-081>083-090>101-190500-
SOUTHEAST KANSAS

CITY           SKY/WX    TMP DP  RH WIND       PRES   REMARKS
CHANUTE        MOCLDY    60  58  92 E6        29.79F
COFFEYVILLE    CLOUDY    62  60  93 E3        29.79R
HUTCHINSON     CLOUDY    56  50  80 E5        29.83R
MEDICINE LODGE   N/A     58  51  78 SE7       29.76F
NEWTON         CLOUDY    54  46  76 SE12      29.82F
PARSONS        MOCLDY    62  60  93 CALM      29.80S
WICHITA INTL   TSTM      57  51  80 S9        29.83R
WICHITA JABRA  HVY RAIN  54  32  43 NW3       29.82R
WICHITA MCCONL TSTM      55  54  94 VRB3      29.81R
WINFIELD       TSTM      54  53  97 N12       29.84R
$$

KSZ007>012-019>026-033>040-048>060-102>105-190500-
NORTHEAST KANSAS

CITY           SKY/WX    TMP DP  RH WIND       PRES   REMARKS
CONCORDIA      CLOUDY    53  52  96 E6        29.80F
EMPORIA        LGT RAIN  54  51  90 NW13      29.84F
LAWRENCE       MOCLDY    56  55  97 CALM      29.82F
MANHATTAN      LGT RAIN  55  54  96 SW6       29.83F
OLATHE IND     MOCLDY    58  57  97 E3        29.82F
OLATHE EXE     MOCLDY    59  57  93 E3        29.81F
SALINA         CLOUDY    56  50  80 NW7       29.80R
TOPEKA BILLARD CLOUDY    58  52  80 W9        29.83S
TOPEKA FORBES  CLOUDY    58  52  80 W9        29.82F
$$


USA.gov is the U.S. government's official web portal to all federal, state and local government web resources and services.